,,,PA_Meas_PMT16A,,PR_Meas_QMR101_102,,RH_Meas_QMH101,,SR_Meas_QMS101,,TA_Meas_QMH101,,GenWind,,GenWind,
date,time,status,PA,status,PR,status,RH,status,SR,status,TA,status,DirAvg,status,SpdAvg,
2008-10-25, 00:00:04,VALID,1012.7,VALID,0,VALID,93.2935,VALID,0.105969,VALID,23.7312,VALID,21,VALID,0.419922,
2008-10-25, 00:01:04,VALID,1012.67,VALID,0,VALID,93.4155,VALID,0.105969,VALID,23.7312,VALID,46,VALID,0.464844,
2008-10-25, 00:02:04,VALID,1012.66,VALID,0,VALID,93.4307,VALID,0.105969,VALID,23.7117,VALID,63,VALID,0.408594,
2008-10-25, 00:03:04,VALID,1012.63,VALID,0,VALID,93.4231,VALID,0.105969,VALID,23.7507,VALID,63,VALID,0.0707031,
2008-10-25, 00:04:04,VALID,1012.6,VALID,0,VALID,93.4155,VALID,0.105969,VALID,23.6727,VALID,63,VALID,0.046875,
2008-10-25, 00:05:04,VALID,1012.54,VALID,0,VALID,93.4079,VALID,0.105969,VALID,23.7117,VALID,63,VALID,0,
2008-10-25, 00:06:04,VALID,1012.52,VALID,0,VALID,93.6214,VALID,0.105969,VALID,23.7117,VALID,316,VALID,0.353906,
2008-10-25, 00:07:04,VALID,1012.47,VALID,0,VALID,93.6595,VALID,0.105969,VALID,23.7312,VALID,313,VALID,0.485547,
2008-10-25, 00:08:04,VALID,1012.42,VALID,0,VALID,93.568,VALID,0,VALID,23.7135,VALID,313,VALID,0.485547,
2008-10-25, 00:09:04,VALID,1012.38,VALID,0,VALID,93.5451,VALID,0,VALID,23.694,VALID,294,VALID,0.273828,
2008-10-25, 00:10:04,VALID,1012.35,VALID,0,VALID,93.5375,VALID,0,VALID,23.6958,VALID,294,VALID,0.3125,
2008-10-25, 00:11:04,VALID,1012.3,VALID,0,VALID,93.5832,VALID,0,VALID,23.694,VALID,294,VALID,0.116016,
2008-10-25, 00:12:04,VALID,1012.28,VALID,0,VALID,93.5756,VALID,0,VALID,23.694,VALID,294,VALID,0.317187,
2008-10-25, 00:13:04,VALID,1012.27,VALID,0,VALID,93.4841,VALID,0,VALID,23.694,VALID,286,VALID,0.324609,
2008-10-25, 00:14:04,VALID,1012.22,VALID,0,VALID,93.4231,VALID,0,VALID,23.6727,VALID,293,VALID,0.526563,
2008-10-25, 00:15:04,VALID,1012.23,VALID,0,VALID,93.2172,VALID,0,VALID,23.6745,VALID,296,VALID,0.278516,
2008-10-25, 00:16:04,VALID,1012.18,VALID,0,VALID,92.8893,VALID,0,VALID,23.655,VALID,291,VALID,0.355859,
2008-10-25, 00:17:04,VALID,1012.15,VALID,0,VALID,92.8893,VALID,0,VALID,23.6745,VALID,291,VALID,0.00351562,
2008-10-25, 00:18:04,VALID,1012.1,VALID,0,VALID,92.8436,VALID,0,VALID,23.6745,VALID,291,VALID,0.0679687,
2008-10-25, 00:19:04,VALID,1012.07,VALID,0,VALID,92.8359,VALID,0,VALID,23.655,VALID,360,VALID,0.402734,
2008-10-25, 00:20:04,VALID,1012.04,VALID,0,VALID,92.8359,VALID,0,VALID,23.655,VALID,36,VALID,0.538281,
2008-10-25, 00:21:04,VALID,1012.02,VALID,0,VALID,92.6529,VALID,0,VALID,23.655,VALID,36,VALID,0.382422,
2008-10-25, 00:22:04,VALID,1012,VALID,0,VALID,92.6376,VALID,0,VALID,23.6356,VALID,21,VALID,0.349219,
2008-10-25, 00:23:04,VALID,1012,VALID,0,VALID,92.7902,VALID,0.105969,VALID,23.6338,VALID,337,VALID,0.30625,
2008-10-25, 00:24:04,VALID,1011.96,VALID,0,VALID,92.7444,VALID,0.105969,VALID,23.6143,VALID,336,VALID,0.311328,
2008-10-25, 00:25:04,VALID,1011.92,VALID,0,VALID,92.4851,VALID,0.105969,VALID,23.5753,VALID,336,VALID,0.388672,
2008-10-25, 00:26:04,VALID,1011.89,VALID,0,VALID,92.4775,VALID,0.105969,VALID,23.5753,VALID,336,VALID,0.166016,
2008-10-25, 00:27:04,VALID,1011.9,VALID,0,VALID,92.7139,VALID,0.105969,VALID,23.5948,VALID,336,VALID,0.299219,
2008-10-25, 00:28:04,VALID,1011.87,VALID,0,VALID,92.6834,VALID,0.105969,VALID,23.5558,VALID,336,VALID,0.223047,
2008-10-25, 00:29:04,VALID,1011.88,VALID,0,VALID,92.4546,VALID,0.105969,VALID,23.5363,VALID,336,VALID,0,
2008-10-25, 00:30:04,VALID,1011.86,VALID,0,VALID,92.4851,VALID,0.105969,VALID,23.5169,VALID,336,VALID,0.0566406,
2008-10-25, 00:31:04,VALID,1011.86,VALID,0,VALID,92.5385,VALID,0.105969,VALID,23.5169,VALID,336,VALID,0,
2008-10-25, 00:32:04,VALID,1011.84,VALID,0,VALID,92.8283,VALID,0.105969,VALID,23.5169,VALID,336,VALID,0.0265625,
2008-10-25, 00:33:04,VALID,1011.82,VALID,0,VALID,92.8283,VALID,0.105969,VALID,23.4779,VALID,336,VALID,0,
2008-10-25, 00:34:04,VALID,1011.81,VALID,0,VALID,92.8893,VALID,0.105969,VALID,23.4779,VALID,351,VALID,0.368359,
2008-10-25, 00:35:04,VALID,1011.78,VALID,0,VALID,93.0571,VALID,0.105969,VALID,23.4974,VALID,125,VALID,0.639453,
2008-10-25, 00:36:04,VALID,1011.75,VALID,0,VALID,92.8359,VALID,0,VALID,23.4974,VALID,125,VALID,0.645312,
2008-10-25, 00:37:04,VALID,1011.73,VALID,0,VALID,92.691,VALID,0.105969,VALID,23.5558,VALID,125,VALID,0.424609,
2008-10-25, 00:38:04,VALID,1011.71,VALID,0,VALID,92.8283,VALID,0,VALID,23.5381,VALID,124,VALID,0.379297,
2008-10-25, 00:39:04,VALID,1011.68,VALID,0,VALID,92.5766,VALID,0,VALID,23.5186,VALID,87,VALID,0.446484,
2008-10-25, 00:40:04,VALID,1011.65,VALID,0,VALID,92.8588,VALID,0,VALID,23.5381,VALID,47,VALID,0.530078,
2008-10-25, 00:41:04,VALID,1011.64,VALID,0,VALID,93.0418,VALID,0,VALID,23.5594,VALID,47,VALID,0.381641,
2008-10-25, 00:42:04,VALID,1011.62,VALID,0,VALID,93.0342,VALID,0,VALID,23.5186,VALID,47,VALID,0.348828,
2008-10-25, 00:43:04,VALID,1011.61,VALID,0,VALID,93.1105,VALID,0,VALID,23.4992,VALID,47,VALID,0.2875,
2008-10-25, 00:44:04,VALID,1011.58,VALID,0,VALID,93.1257,VALID,0,VALID,23.4584,VALID,46,VALID,0.370703,
2008-10-25, 00:45:04,VALID,1011.56,VALID,0,VALID,93.2401,VALID,0,VALID,23.4797,VALID,46,VALID,0.336719,
2008-10-25, 00:46:04,VALID,1011.57,VALID,0,VALID,93.324,VALID,0,VALID,23.4797,VALID,45,VALID,0.432813,
2008-10-25, 00:47:04,VALID,1011.54,VALID,0,VALID,93.4155,VALID,0,VALID,23.4797,VALID,35,VALID,0.346484,
2008-10-25, 00:48:04,VALID,1011.53,VALID,0,VALID,93.4536,VALID,0,VALID,23.4407,VALID,14,VALID,0.379687,
2008-10-25, 00:49:04,VALID,1011.52,VALID,0,VALID,93.4231,VALID,0,VALID,23.4407,VALID,14,VALID,0.438672,
2008-10-25, 00:50:04,VALID,1011.5,VALID,0,VALID,93.3163,VALID,0,VALID,23.4017,VALID,14,VALID,0.436719,
2008-10-25, 00:51:04,VALID,1011.48,VALID,0,VALID,93.3087,VALID,0,VALID,23.4017,VALID,14,VALID,0.421484,
2008-10-25, 00:52:04,VALID,1011.47,VALID,0,VALID,93.2935,VALID,0,VALID,23.3823,VALID,14,VALID,0.566406,
2008-10-25, 00:53:04,VALID,1011.46,VALID,0,VALID,93.4307,VALID,0,VALID,23.3628,VALID,14,VALID,0.374609,
2008-10-25, 00:54:04,VALID,1011.47,VALID,0,VALID,93.5375,VALID,0,VALID,23.3823,VALID,14,VALID,0.299609,
2008-10-25, 00:55:04,VALID,1011.48,VALID,0,VALID,93.7281,VALID,0,VALID,23.3628,VALID,14,VALID,0.2375,
2008-10-25, 00:56:04,VALID,1011.48,VALID,0,VALID,93.8807,VALID,0,VALID,23.3823,VALID,14,VALID,0.247656,
2008-10-25, 00:57:04,VALID,1011.47,VALID,0,VALID,94.0332,VALID,0,VALID,23.3628,VALID,14,VALID,0,
2008-10-25, 00:58:04,VALID,1011.47,VALID,0,VALID,94.1323,VALID,0,VALID,23.3823,VALID,14,VALID,0.00195313,
2008-10-25, 00:59:04,VALID,1011.42,VALID,0,VALID,94.2086,VALID,0,VALID,23.3823,VALID,14,VALID,0.0777344,
2008-10-25, 01:00:04,VALID,1011.43,VALID,0,VALID,94.2314,VALID,0,VALID,23.3645,VALID,14,VALID,0,
2008-10-25, 01:01:04,VALID,1011.37,VALID,0,VALID,94.2696,VALID,0,VALID,23.3628,VALID,14,VALID,0.233594,
2008-10-25, 01:02:04,VALID,1011.36,VALID,0,VALID,94.2924,VALID,0,VALID,23.3433,VALID,5,VALID,0.122266,
2008-10-25, 01:03:04,VALID,1011.35,VALID,0,VALID,94.3077,VALID,0,VALID,23.3433,VALID,5,VALID,0.207031,
2008-10-25, 01:04:04,VALID,1011.33,VALID,0,VALID,94.3839,VALID,0,VALID,23.3238,VALID,351,VALID,0.253516,
2008-10-25, 01:05:04,VALID,1011.3,VALID,0,VALID,94.4297,VALID,0,VALID,23.3433,VALID,351,VALID,0.111719,
2008-10-25, 01:06:04,VALID,1011.26,VALID,0,VALID,94.4526,VALID,0,VALID,23.3433,VALID,360,VALID,0.276563,
2008-10-25, 01:07:04,VALID,1011.29,VALID,0,VALID,94.4373,VALID,0,VALID,23.3451,VALID,12,VALID,0.289844,
2008-10-25, 01:08:04,VALID,1011.28,VALID,0,VALID,94.4755,VALID,0,VALID,23.322,VALID,12,VALID,0.162109,
2008-10-25, 01:09:04,VALID,1011.27,VALID,0,VALID,94.4602,VALID,0.105969,VALID,23.322,VALID,12,VALID,0.0773437,
2008-10-25, 01:10:04,VALID,1011.27,VALID,0,VALID,94.5212,VALID,0.105969,VALID,23.3415,VALID,77,VALID,0.573047,
2008-10-25, 01:11:04,VALID,1011.28,VALID,0,VALID,94.5593,VALID,0,VALID,23.361,VALID,74,VALID,0.653125,
2008-10-25, 01:12:04,VALID,1011.27,VALID,0,VALID,94.5136,VALID,0.105969,VALID,23.3026,VALID,71,VALID,0.725781,
2008-10-25, 01:13:04,VALID,1011.28,VALID,0,VALID,94.5288,VALID,0.105969,VALID,23.3805,VALID,70,VALID,0.604688,
2008-10-25, 01:14:04,VALID,1011.27,VALID,0,VALID,94.5441,VALID,0.105969,VALID,23.3805,VALID,73,VALID,0.580859,
2008-10-25, 01:15:04,VALID,1011.27,VALID,0,VALID,94.5288,VALID,0.105969,VALID,23.4177,VALID,83,VALID,0.542578,
2008-10-25, 01:16:04,VALID,1011.24,VALID,0,VALID,94.4602,VALID,0.105969,VALID,23.3805,VALID,72,VALID,0.676562,
2008-10-25, 01:17:04,VALID,1011.22,VALID,0,VALID,94.3992,VALID,0.105969,VALID,23.3805,VALID,62,VALID,0.821484,
2008-10-25, 01:18:04,VALID,1011.22,VALID,0,VALID,94.3992,VALID,0.105969,VALID,23.4,VALID,57,VALID,0.611719,
2008-10-25, 01:19:04,VALID,1011.21,VALID,0,VALID,94.3687,VALID,0.105969,VALID,23.4,VALID,35,VALID,0.406641,
2008-10-25, 01:20:04,VALID,1011.23,VALID,0,VALID,94.3306,VALID,0.105969,VALID,23.361,VALID,7,VALID,0.25625,
2008-10-25, 01:21:04,VALID,1011.19,VALID,0,VALID,94.3839,VALID,0,VALID,23.361,VALID,334,VALID,0.35625,
2008-10-25, 01:22:04,VALID,1011.2,VALID,0,VALID,94.3306,VALID,0.105969,VALID,23.3805,VALID,320,VALID,0.464063,
2008-10-25, 01:23:04,VALID,1011.18,VALID,0,VALID,94.2924,VALID,0,VALID,23.3628,VALID,336,VALID,0.951953,
2008-10-25, 01:24:04,VALID,1011.19,VALID,0,VALID,94.2772,VALID,0,VALID,23.3628,VALID,335,VALID,0.402344,
2008-10-25, 01:25:04,VALID,1011.21,VALID,0,VALID,94.2314,VALID,0,VALID,23.3433,VALID,355,VALID,0.610156,
2008-10-25, 01:26:04,VALID,1011.23,VALID,0,VALID,94.1933,VALID,0,VALID,23.3043,VALID,322,VALID,0.871875,
2008-10-25, 01:27:04,VALID,1011.24,VALID,0,VALID,94.2009,VALID,0,VALID,23.3238,VALID,322,VALID,0.529297,
2008-10-25, 01:28:04,VALID,1011.21,VALID,0,VALID,94.1781,VALID,0,VALID,23.3238,VALID,326,VALID,0.908984,
2008-10-25, 01:29:04,VALID,1011.24,VALID,0,VALID,94.1857,VALID,0,VALID,23.3043,VALID,311,VALID,0.582422,
2008-10-25, 01:30:04,VALID,1011.24,VALID,0,VALID,94.0789,VALID,0,VALID,23.3061,VALID,341,VALID,0.851953,
2008-10-25, 01:31:04,VALID,1011.21,VALID,0,VALID,93.934,VALID,0,VALID,23.2246,VALID,332,VALID,0.366016,
2008-10-25, 01:32:04,VALID,1011.21,VALID,0,VALID,93.7281,VALID,0,VALID,23.1874,VALID,22,VALID,0.523438,
2008-10-25, 01:33:04,VALID,1011.18,VALID,0,VALID,93.6366,VALID,0,VALID,23.2069,VALID,9,VALID,0.620313,
2008-10-25, 01:34:04,VALID,1011.2,VALID,0,VALID,93.5985,VALID,0,VALID,23.2069,VALID,353,VALID,0.311328,
2008-10-25, 01:35:04,VALID,1011.22,VALID,0,VALID,93.5527,VALID,0,VALID,23.2069,VALID,335,VALID,0.505469,
2008-10-25, 01:36:04,VALID,1011.24,VALID,0,VALID,93.5299,VALID,0,VALID,23.1679,VALID,322,VALID,1.25625,
2008-10-25, 01:37:04,VALID,1011.25,VALID,0,VALID,93.5222,VALID,0,VALID,23.1679,VALID,331,VALID,0.862109,
2008-10-25, 01:38:04,VALID,1011.22,VALID,0,VALID,93.4689,VALID,0,VALID,23.1697,VALID,306,VALID,0.298438,
2008-10-25, 01:39:04,VALID,1011.2,VALID,0,VALID,93.3621,VALID,0,VALID,23.129,VALID,13,VALID,0.682813,
2008-10-25, 01:40:04,VALID,1011.21,VALID,0,VALID,93.2401,VALID,0,VALID,23.1095,VALID,317,VALID,0.905859,
2008-10-25, 01:41:04,VALID,1011.2,VALID,0,VALID,93.1486,VALID,0,VALID,23.09,VALID,306,VALID,0.393359,
2008-10-25, 01:42:04,VALID,1011.22,VALID,0,VALID,93.1181,VALID,0,VALID,23.0705,VALID,342,VALID,0.634375,
2008-10-25, 01:43:04,VALID,1011.18,VALID,0,VALID,93.1638,VALID,0,VALID,23.0918,VALID,317,VALID,0.751562,
2008-10-25, 01:44:04,VALID,1011.19,VALID,0,VALID,93.0647,VALID,0,VALID,23.0511,VALID,336,VALID,0.627734,
2008-10-25, 01:45:04,VALID,1011.17,VALID,0,VALID,93.1257,VALID,0,VALID,23.0511,VALID,324,VALID,0.517187,
2008-10-25, 01:46:04,VALID,1011.16,VALID,0,VALID,93.1562,VALID,0,VALID,23.0316,VALID,317,VALID,0.478906,
2008-10-25, 01:47:04,VALID,1011.12,VALID,0,VALID,93.3468,VALID,0,VALID,23.0511,VALID,317,VALID,0.05,
2008-10-25, 01:48:04,VALID,1011.11,VALID,0,VALID,93.1867,VALID,0,VALID,23.0121,VALID,324,VALID,1.05195,
2008-10-25, 01:49:04,VALID,1011.1,VALID,0,VALID,93.1943,VALID,0,VALID,22.9926,VALID,311,VALID,0.381641,
2008-10-25, 01:50:04,VALID,1011.07,VALID,0,VALID,93.1105,VALID,0,VALID,23.0333,VALID,12,VALID,0.336719,
2008-10-25, 01:51:04,VALID,1011.03,VALID,0,VALID,93.1333,VALID,0,VALID,22.9731,VALID,352,VALID,0.418359,
2008-10-25, 01:52:04,VALID,1011.05,VALID,0,VALID,93.2172,VALID,0,VALID,22.9714,VALID,353,VALID,0.116016,
2008-10-25, 01:53:04,VALID,1011.02,VALID,0,VALID,93.263,VALID,0,VALID,22.9536,VALID,322,VALID,0.539063,
2008-10-25, 01:54:04,VALID,1010.99,VALID,0,VALID,93.1867,VALID,0,VALID,22.9714,VALID,308,VALID,0.423047,
2008-10-25, 01:55:04,VALID,1010.96,VALID,0,VALID,93.202,VALID,0,VALID,22.9731,VALID,348,VALID,0.482422,
2008-10-25, 01:56:04,VALID,1010.92,VALID,0,VALID,93.1562,VALID,0.105969,VALID,22.9519,VALID,330,VALID,0.409766,
2008-10-25, 01:57:04,VALID,1010.9,VALID,0,VALID,93.2172,VALID,0,VALID,22.9536,VALID,320,VALID,0.423828,
2008-10-25, 01:58:04,VALID,1010.87,VALID,0,VALID,93.1333,VALID,0,VALID,22.9536,VALID,323,VALID,0.680078,
2008-10-25, 01:59:04,VALID,1010.85,VALID,0,VALID,93.1715,VALID,0,VALID,22.9324,VALID,314,VALID,0.446484,
2008-10-25, 02:00:04,VALID,1010.86,VALID,0,VALID,93.2401,VALID,0,VALID,22.9536,VALID,336,VALID,0.538672,
2008-10-25, 02:01:04,VALID,1010.82,VALID,0,VALID,93.4002,VALID,0,VALID,22.9519,VALID,348,VALID,0.177344,
2008-10-25, 02:02:04,VALID,1010.85,VALID,0,VALID,93.4612,VALID,0.105969,VALID,22.9536,VALID,346,VALID,0.258984,
2008-10-25, 02:03:04,VALID,1010.83,VALID,0,VALID,93.4155,VALID,0,VALID,22.9342,VALID,346,VALID,0.20625,
2008-10-25, 02:04:04,VALID,1010.84,VALID,0,VALID,93.2706,VALID,0,VALID,22.9147,VALID,32,VALID,0.575391,
2008-10-25, 02:05:04,VALID,1010.86,VALID,0,VALID,93.202,VALID,0,VALID,22.8952,VALID,5,VALID,0.232031,
2008-10-25, 02:06:04,VALID,1010.85,VALID,0,VALID,93.3316,VALID,0,VALID,22.8952,VALID,5,VALID,0.0359375,
2008-10-25, 02:07:04,VALID,1010.82,VALID,0,VALID,93.446,VALID,0,VALID,22.8952,VALID,5,VALID,0,
2008-10-25, 02:08:04,VALID,1010.82,VALID,0,VALID,93.5299,VALID,0,VALID,22.8952,VALID,5,VALID,0,
2008-10-25, 02:09:04,VALID,1010.79,VALID,0,VALID,93.7281,VALID,0,VALID,22.9342,VALID,4,VALID,0,
2008-10-25, 02:10:04,VALID,1010.8,VALID,0,VALID,93.7968,VALID,0,VALID,22.8952,VALID,4,VALID,0.0113281,
2008-10-25, 02:11:04,VALID,1010.8,VALID,0,VALID,93.7205,VALID,0,VALID,22.9147,VALID,4,VALID,0,
2008-10-25, 02:12:04,VALID,1010.81,VALID,0,VALID,93.7739,VALID,0,VALID,22.8935,VALID,4,VALID,0,
2008-10-25, 02:13:04,VALID,1010.83,VALID,0,VALID,93.7663,VALID,0,VALID,22.9147,VALID,4,VALID,0.009375,
2008-10-25, 02:14:04,VALID,1010.82,VALID,0,VALID,93.7739,VALID,0,VALID,22.9147,VALID,24,VALID,0.435937,
2008-10-25, 02:15:04,VALID,1010.83,VALID,0,VALID,93.6442,VALID,0.105969,VALID,22.8952,VALID,36,VALID,0.563672,
2008-10-25, 02:16:04,VALID,1010.83,VALID,0,VALID,93.6214,VALID,0,VALID,22.9147,VALID,50,VALID,0.534375,
2008-10-25, 02:17:04,VALID,1010.87,VALID,0,VALID,93.5832,VALID,0,VALID,22.874,VALID,14,VALID,0.603906,
2008-10-25, 02:18:04,VALID,1010.88,VALID,0,VALID,93.507,VALID,0,VALID,22.8757,VALID,355,VALID,0.471875,
2008-10-25, 02:19:04,VALID,1010.87,VALID,0,VALID,93.6748,VALID,0,VALID,22.9147,VALID,52,VALID,0.229687,
2008-10-25, 02:20:04,VALID,1010.86,VALID,0,VALID,93.812,VALID,0,VALID,22.9536,VALID,52,VALID,0.0492188,
2008-10-25, 02:21:04,VALID,1010.89,VALID,0,VALID,93.6976,VALID,0,VALID,22.874,VALID,39,VALID,0.345313,
2008-10-25, 02:22:04,VALID,1010.9,VALID,0,VALID,93.629,VALID,0,VALID,22.8952,VALID,4,VALID,0.469141,
2008-10-25, 02:23:04,VALID,1010.93,VALID,0,VALID,93.568,VALID,0.105969,VALID,22.8952,VALID,356,VALID,0.158984,
2008-10-25, 02:24:04,VALID,1010.91,VALID,0,VALID,93.5756,VALID,0,VALID,22.9147,VALID,30,VALID,0.467578,
2008-10-25, 02:25:04,VALID,1010.94,VALID,0,VALID,93.6366,VALID,0,VALID,22.9147,VALID,34,VALID,0.00429688,
2008-10-25, 02:26:04,VALID,1010.92,VALID,0,VALID,93.8044,VALID,0,VALID,22.9342,VALID,34,VALID,0.130859,
2008-10-25, 02:27:04,VALID,1010.93,VALID,0,VALID,93.812,VALID,0,VALID,22.9129,VALID,34,VALID,0.107813,
2008-10-25, 02:28:04,VALID,1010.94,VALID,0,VALID,93.7891,VALID,0,VALID,22.9129,VALID,34,VALID,0.163672,
2008-10-25, 02:29:04,VALID,1010.93,VALID,0,VALID,93.8883,VALID,0,VALID,22.9342,VALID,73,VALID,0.377734,
2008-10-25, 02:30:04,VALID,1010.94,VALID,0,VALID,93.751,VALID,0,VALID,22.9519,VALID,63,VALID,0.425,
2008-10-25, 02:31:04,VALID,1010.93,VALID,0,VALID,93.7663,VALID,0,VALID,22.9342,VALID,59,VALID,0.212109,
2008-10-25, 02:32:04,VALID,1010.94,VALID,0,VALID,93.7586,VALID,0,VALID,22.9342,VALID,46,VALID,0.157031,
2008-10-25, 02:33:04,VALID,1010.94,VALID,0,VALID,93.7205,VALID,0,VALID,22.9342,VALID,344,VALID,0.179297,
2008-10-25, 02:34:04,VALID,1010.95,VALID,0,VALID,93.7205,VALID,0,VALID,22.9342,VALID,344,VALID,0.152734,
2008-10-25, 02:35:04,VALID,1010.95,VALID,0,VALID,93.7205,VALID,0,VALID,22.9129,VALID,13,VALID,0.338672,
2008-10-25, 02:36:04,VALID,1010.95,VALID,0,VALID,93.7205,VALID,0,VALID,22.9342,VALID,21,VALID,0.275391,
2008-10-25, 02:37:04,VALID,1010.97,VALID,0,VALID,93.7891,VALID,0,VALID,22.9342,VALID,52,VALID,0.462891,
2008-10-25, 02:38:04,VALID,1010.98,VALID,0,VALID,93.9112,VALID,0,VALID,22.9342,VALID,61,VALID,0.528906,
2008-10-25, 02:39:04,VALID,1010.95,VALID,0,VALID,93.9645,VALID,0,VALID,22.9731,VALID,80,VALID,0.585547,
2008-10-25, 02:40:04,VALID,1010.97,VALID,0,VALID,93.995,VALID,0,VALID,22.9129,VALID,71,VALID,0.894922,
2008-10-25, 02:41:04,VALID,1010.95,VALID,0,VALID,93.9569,VALID,0,VALID,22.9536,VALID,66,VALID,0.719141,
2008-10-25, 02:42:04,VALID,1010.98,VALID,0,VALID,93.9264,VALID,0.105969,VALID,22.9129,VALID,72,VALID,1.0457,
2008-10-25, 02:43:04,VALID,1011.01,VALID,0,VALID,93.8959,VALID,0,VALID,22.9342,VALID,84,VALID,0.576563,
2008-10-25, 02:44:04,VALID,1010.99,VALID,0,VALID,93.8959,VALID,0.105969,VALID,22.9129,VALID,36,VALID,0.31875,
2008-10-25, 02:45:04,VALID,1011,VALID,0,VALID,93.9112,VALID,0.105969,VALID,22.9536,VALID,61,VALID,0.305078,
2008-10-25, 02:46:04,VALID,1011.01,VALID,0,VALID,93.9569,VALID,0.105969,VALID,22.9519,VALID,80,VALID,0.658594,
2008-10-25, 02:47:04,VALID,1011.04,VALID,0,VALID,93.9264,VALID,0,VALID,22.9536,VALID,88,VALID,0.614062,
2008-10-25, 02:48:04,VALID,1011.05,VALID,0,VALID,93.934,VALID,0.105969,VALID,22.9324,VALID,86,VALID,0.922266,
2008-10-25, 02:49:04,VALID,1011.09,VALID,0,VALID,93.9569,VALID,0,VALID,22.9536,VALID,76,VALID,0.645703,
2008-10-25, 02:50:04,VALID,1011.09,VALID,0,VALID,94.0027,VALID,0,VALID,22.9926,VALID,80,VALID,0.598828,
2008-10-25, 02:51:04,VALID,1011.14,VALID,0,VALID,94.0637,VALID,0,VALID,22.9926,VALID,72,VALID,0.0105469,
2008-10-25, 02:52:04,VALID,1011.13,VALID,0,VALID,94.0408,VALID,0,VALID,23.0121,VALID,71,VALID,0.148047,
2008-10-25, 02:53:04,VALID,1011.14,VALID,0,VALID,94.0179,VALID,0,VALID,22.9731,VALID,64,VALID,0.0175781,
2008-10-25, 02:54:04,VALID,1011.13,VALID,0,VALID,93.9493,VALID,0.105969,VALID,22.9926,VALID,27,VALID,0.213281,
2008-10-25, 02:55:04,VALID,1011.13,VALID,0,VALID,93.9722,VALID,0,VALID,22.9731,VALID,27,VALID,0.179297,
2008-10-25, 02:56:04,VALID,1011.13,VALID,0,VALID,93.9493,VALID,0,VALID,22.9731,VALID,91,VALID,0.310937,
2008-10-25, 02:57:04,VALID,1011.16,VALID,0,VALID,93.9722,VALID,0,VALID,22.9536,VALID,62,VALID,0.798047,
2008-10-25, 02:58:04,VALID,1011.16,VALID,0,VALID,93.9645,VALID,0,VALID,22.9731,VALID,59,VALID,0.424609,
2008-10-25, 02:59:04,VALID,1011.17,VALID,0,VALID,94.0027,VALID,0,VALID,22.9731,VALID,70,VALID,0.310156,
2008-10-25, 03:00:04,VALID,1011.17,VALID,0,VALID,94.0789,VALID,0,VALID,23.0316,VALID,74,VALID,0.641406,
2008-10-25, 03:01:04,VALID,1011.17,VALID,0,VALID,94.0942,VALID,0,VALID,23.0333,VALID,75,VALID,0.495703,
2008-10-25, 03:02:04,VALID,1011.18,VALID,0,VALID,94.0255,VALID,0,VALID,22.9714,VALID,68,VALID,0.632031,
2008-10-25, 03:03:04,VALID,1011.19,VALID,0,VALID,94.0332,VALID,0,VALID,23.0511,VALID,63,VALID,0.158594,
2008-10-25, 03:04:04,VALID,1011.18,VALID,0,VALID,94.0179,VALID,0,VALID,23.0121,VALID,65,VALID,0.798437,
2008-10-25, 03:05:04,VALID,1011.19,VALID,0,VALID,94.0865,VALID,0,VALID,23.0316,VALID,70,VALID,0.406641,
2008-10-25, 03:06:04,VALID,1011.21,VALID,0,VALID,94.1476,VALID,0,VALID,23.0528,VALID,70,VALID,0.591406,
2008-10-25, 03:07:04,VALID,1011.2,VALID,0,VALID,94.1781,VALID,0,VALID,23.0316,VALID,82,VALID,0.701953,
2008-10-25, 03:08:04,VALID,1011.26,VALID,0,VALID,94.1704,VALID,0,VALID,23.0316,VALID,64,VALID,1.21406,
2008-10-25, 03:09:04,VALID,1011.23,VALID,0,VALID,94.1933,VALID,0,VALID,23.0121,VALID,69,VALID,0.469922,
2008-10-25, 03:10:04,VALID,1011.27,VALID,0,VALID,94.2391,VALID,0,VALID,23.0121,VALID,59,VALID,0.651172,
2008-10-25, 03:11:04,VALID,1011.28,VALID,0,VALID,94.2924,VALID,0,VALID,23.0511,VALID,56,VALID,0.442578,
2008-10-25, 03:12:04,VALID,1011.29,VALID,0,VALID,94.3458,VALID,0,VALID,23.0316,VALID,72,VALID,0.689062,
2008-10-25, 03:13:04,VALID,1011.31,VALID,0,VALID,94.3763,VALID,0,VALID,23.0316,VALID,67,VALID,0.569141,
2008-10-25, 03:14:04,VALID,1011.28,VALID,0,VALID,94.4221,VALID,0,VALID,23.0511,VALID,50,VALID,0.396875,
2008-10-25, 03:15:04,VALID,1011.29,VALID,0,VALID,94.4602,VALID,0,VALID,23.0298,VALID,68,VALID,0.667188,
2008-10-25, 03:16:04,VALID,1011.3,VALID,0,VALID,94.4678,VALID,0,VALID,23.0511,VALID,48,VALID,0.505078,
2008-10-25, 03:17:04,VALID,1011.33,VALID,0,VALID,94.4983,VALID,0,VALID,23.0511,VALID,70,VALID,0.667578,
2008-10-25, 03:18:04,VALID,1011.34,VALID,0,VALID,94.5136,VALID,0,VALID,23.0511,VALID,78,VALID,0.578516,
2008-10-25, 03:19:04,VALID,1011.34,VALID,0,VALID,94.5517,VALID,0,VALID,23.0705,VALID,75,VALID,0.466016,
2008-10-25, 03:20:04,VALID,1011.38,VALID,0,VALID,94.5441,VALID,0,VALID,23.0511,VALID,58,VALID,1.26445,
2008-10-25, 03:21:04,VALID,1011.36,VALID,0,VALID,94.4983,VALID,0,VALID,23.0705,VALID,66,VALID,0.989062,
2008-10-25, 03:22:04,VALID,1011.38,VALID,0,VALID,94.4755,VALID,0,VALID,23.0918,VALID,67,VALID,0.581641,
2008-10-25, 03:23:04,VALID,1011.39,VALID,0,VALID,94.4526,VALID,0,VALID,23.0705,VALID,63,VALID,0.819531,
2008-10-25, 03:24:04,VALID,1011.41,VALID,0,VALID,94.4678,VALID,0,VALID,23.0705,VALID,81,VALID,0.854688,
2008-10-25, 03:25:04,VALID,1011.4,VALID,0,VALID,94.4602,VALID,0,VALID,23.0705,VALID,75,VALID,0.400781,
2008-10-25, 03:26:04,VALID,1011.42,VALID,0,VALID,94.445,VALID,0,VALID,23.09,VALID,46,VALID,0.661719,
2008-10-25, 03:27:04,VALID,1011.39,VALID,0,VALID,94.4907,VALID,0,VALID,23.09,VALID,83,VALID,0.451953,
2008-10-25, 03:28:04,VALID,1011.4,VALID,0,VALID,94.4755,VALID,0,VALID,23.09,VALID,23,VALID,0.144141,
2008-10-25, 03:29:04,VALID,1011.38,VALID,0,VALID,94.4221,VALID,0,VALID,23.0705,VALID,23,VALID,0.648438,
2008-10-25, 03:30:04,VALID,1011.38,VALID,0,VALID,94.3839,VALID,0,VALID,23.0511,VALID,64,VALID,0.786719,
2008-10-25, 03:31:04,VALID,1011.4,VALID,0,VALID,94.3763,VALID,0,VALID,23.0705,VALID,71,VALID,0.374219,
2008-10-25, 03:32:04,VALID,1011.37,VALID,0,VALID,94.4068,VALID,0,VALID,23.09,VALID,71,VALID,0.000390625,
2008-10-25, 03:33:04,VALID,1011.37,VALID,0,VALID,94.3687,VALID,0.105969,VALID,23.0511,VALID,67,VALID,0.409766,
2008-10-25, 03:34:04,VALID,1011.35,VALID,0,VALID,94.3611,VALID,0,VALID,23.0511,VALID,18,VALID,0.450781,
2008-10-25, 03:35:04,VALID,1011.37,VALID,0,VALID,94.3534,VALID,0,VALID,23.0511,VALID,48,VALID,0.423438,
2008-10-25, 03:36:04,VALID,1011.35,VALID,0,VALID,94.3916,VALID,0,VALID,23.0511,VALID,71,VALID,0.360547,
2008-10-25, 03:37:04,VALID,1011.36,VALID,0,VALID,94.3687,VALID,0,VALID,23.0511,VALID,66,VALID,0.437891,
2008-10-25, 03:38:04,VALID,1011.38,VALID,0,VALID,94.3992,VALID,0,VALID,23.0511,VALID,50,VALID,0.384375,
2008-10-25, 03:39:04,VALID,1011.38,VALID,0,VALID,94.4068,VALID,0,VALID,23.0493,VALID,68,VALID,0.658984,
2008-10-25, 03:40:04,VALID,1011.37,VALID,0,VALID,94.4145,VALID,0,VALID,23.0511,VALID,66,VALID,0.644922,
2008-10-25, 03:41:04,VALID,1011.39,VALID,0,VALID,94.3916,VALID,0,VALID,23.0316,VALID,25,VALID,0.592578,
2008-10-25, 03:42:04,VALID,1011.41,VALID,0,VALID,94.4297,VALID,0,VALID,23.0511,VALID,74,VALID,0.551562,
2008-10-25, 03:43:04,VALID,1011.41,VALID,0,VALID,94.4221,VALID,0,VALID,23.0511,VALID,79,VALID,0.526953,